[[{"header":{"parameterUnit":"m.s-1","parameterCategory":1,"la1":30.2991,"la2":30.254,"lo1":-89.0895,"lo2":-89.0444,"dy":0.0017,"dx":0.0017,"nx":28,"ny":28,"refTime":"2025-07-05T09:00:00:Z","depth":0,"parameterNumber":2,"parameterNumberName":"U-component_of_WINDS"},"data":[0,0,0,0,0,0,0,0,0,0,0,0,0,0,0,0,0,0,0,0,0,0,0,0,0,0,0,0,0,0,0,0,0,0,0,0,0,0,0,0,0,0,0,0,0,0,0,0,0,0,0,0,0,0,0,0,0,0,1.7516,1.7517,0,1.7634,1.7635,1.7637,1.771,1.771,1.7711,1.7711,1.7819,1.7822,1.7824,0,0,0,0,0,0,0,0,0,0,0,0,0,1.7341,1.7344,1.7516,1.7518,1.7519,1.7634,1.7635,1.7637,1.771,1.771,1.7711,1.7711,1.7819,1.7822,1.7825,0,0,0,0,0,0,0,0,0,0,0,0,0,1.7434,1.7345,1.7516,1.757,1.7576,1.7634,1.7636,1.7637,1.771,1.771,1.7711,1.7712,1.7818,1.7821,1.7825,1.7835,0,0,1.7836,1.7838,0,0,0,0,0,0,0,0,1.7428,1.744,1.756,1.7566,1.7573,1.7658,1.7614,1.7703,1.771,1.7658,1.7711,1.7712,1.7764,1.7773,1.7793,1.784,1.7845,1.7837,1.7839,1.7841,1.7842,0,0,0,0,0,0,0,1.7422,1.7435,1.7562,1.7562,1.7569,1.7584,1.7597,1.7631,1.7706,1.7663,1.7668,1.7682,1.7768,1.7789,1.7796,1.7846,1.7837,1.784,1.7842,1.7844,1.7906,1.7906,0,0,0,0,0,0,1.7409,1.7429,1.7559,1.7566,1.7501,1.7586,1.7602,1.763,1.7706,1.7718,1.7681,1.7685,1.7782,1.7792,1.78,1.7816,1.7841,1.7844,1.7846,1.7907,1.7906,1.7906,0,0,0,0,0,0,1.7405,1.742,1.7554,1.7499,1.7518,1.7589,1.762,1.7632,1.7653,1.772,1.7733,1.769,1.7783,1.7795,1.7826,1.7821,1.7846,1.7849,1.7908,1.7907,1.7906,1.7848,0,0,0,0,0,0,1.7399,1.7418,1.7425,1.7499,1.752,1.7581,1.7619,1.7634,1.7661,1.7667,1.7732,1.7743,1.7785,1.782,1.783,1.7826,1.7852,1.7908,1.7907,1.7906,1.7851,1.7846,1.7841,0,0,0,0,0,1.7393,1.7401,1.7425,1.744,1.7532,1.7581,1.7593,1.7645,1.766,1.7666,1.7709,1.7741,1.782,1.7823,1.7835,1.7832,1.7909,1.7908,1.7906,1.7853,1.7847,1.7841,0,0,0,0,0,0,1.7319,1.7412,1.7439,1.7473,1.7519,1.7594,1.7603,1.7636,1.7675,1.7678,1.7737,1.7751,1.7776,1.7808,1.7809,1.7845,1.7868,1.7869,1.7824,1.7818,1.7813,1.7804,1.7855,0,0,0,0,0,1.7308,1.7345,1.7422,1.7444,1.7467,1.7531,1.7554,1.759,1.7639,1.7657,1.7703,1.7745,1.778,1.7801,1.7836,1.7857,1.787,1.786,1.7855,1.7851,1.785,1.7861,1.7857,1.7901,1.7901,1.7901,0,0,1.7283,1.7338,1.7357,1.7431,1.7471,1.7504,1.7546,1.7579,1.7603,1.7661,1.7695,1.7729,1.778,1.7806,1.7819,1.7832,1.7841,1.7849,1.7845,1.7847,1.786,1.7855,1.7852,1.7901,1.7901,1.7901,0,0,1.7254,1.7301,1.7325,1.7365,1.7427,1.747,1.7476,1.7546,1.7572,1.7608,1.7652,1.7679,1.7738,1.7773,1.7798,1.7784,1.7813,1.7793,1.7766,1.7777,1.7773,1.777,1.7763,1.776,1.7793,1.7793,1.7793,0,1.7214,1.727,1.7331,1.7363,1.7392,1.7452,1.7474,1.7508,1.7576,1.7594,1.7609,1.7685,1.7723,1.7757,1.7754,1.7773,1.7778,1.7785,1.777,1.7767,1.7765,1.7759,1.7757,1.779,1.779,1.779,1.7791,0,1.7216,1.7254,1.7265,1.7335,1.7366,1.7392,1.7453,1.7477,1.7511,1.7551,1.7585,1.7634,1.768,1.7691,1.7722,1.7729,1.7735,1.7759,1.7783,1.7757,1.7752,1.7751,1.7786,1.7787,1.7787,1.7788,0,0,1.7142,1.7248,1.7251,1.7283,1.7357,1.7385,1.7412,1.7462,1.748,1.7525,1.7548,1.7597,1.762,1.7649,1.7685,1.7694,1.7678,1.7717,1.7719,1.7706,1.7686,1.7666,1.7662,1.7699,1.7699,1.7699,1.7681,0,1.7122,1.7181,1.7237,1.7272,1.7307,1.7364,1.7388,1.7433,1.7471,1.7503,1.7543,1.7577,1.7606,1.7623,1.7636,1.7677,1.7674,1.7679,1.7716,1.7717,1.77,1.766,1.7639,1.762,1.7679,1.7679,1.7679,0,1.7107,1.7155,1.7195,1.7267,1.7283,1.7304,1.7354,1.7385,1.7436,1.7463,1.7496,1.7535,1.7563,1.7586,1.7624,1.7626,1.7645,1.7668,1.7668,1.7671,1.7694,1.766,1.7615,1.7611,1.7677,1.7677,1.7677,0,1.7046,1.712,1.7154,1.718,1.7265,1.7278,1.7312,1.7366,1.7392,1.7434,1.7451,1.7495,1.7518,1.7549,1.7597,1.761,1.7629,1.7656,1.7649,1.7648,1.7648,1.7647,1.7603,1.7664,1.7664,1.7664,1.7664,0,1.7017,1.7038,1.7129,1.7149,1.7174,1.7238,1.7259,1.7299,1.7346,1.7372,1.7423,1.7445,1.751,1.7538,1.7576,1.7601,1.7611,1.7631,1.764,1.7625,1.7622,1.7636,1.7637,1.7663,1.7664,1.7664,1.7664,0,1.6952,1.7014,1.7054,1.7133,1.7153,1.7167,1.7232,1.7252,1.7295,1.7327,1.7338,1.7403,1.744,1.7493,1.7544,1.757,1.7587,1.7604,1.7571,1.7576,1.7565,1.7565,1.7527,1.7524,1.7588,1.7588,1.7587,0,1.6928,1.6947,1.7029,1.7053,1.7088,1.7124,1.7153,1.7216,1.7242,1.7304,1.7315,1.7357,1.7394,1.745,1.7499,1.7538,1.7554,1.7539,1.756,1.7544,1.7551,1.7549,1.755,1.7532,1.7531,1.753,1.753,0,1.6878,1.6908,1.695,1.7003,1.7037,1.708,1.7125,1.714,1.7211,1.7238,1.7279,1.7308,1.7363,1.7403,1.745,1.7481,1.7515,1.7523,1.7523,1.7506,1.7486,1.7494,1.7554,1.7523,1.7523,1.7524,1.7524,1.7525,1.6831,1.6851,1.6912,1.6957,1.6999,1.704,1.7063,1.7111,1.7147,1.72,1.7234,1.7273,1.7323,1.739,1.742,1.7449,1.7463,1.7463,1.7463,1.7461,1.7455,1.7484,1.7457,1.7458,1.7458,1.7458,1.7458,0,1.6782,1.6825,1.6866,1.6931,1.6965,1.7001,1.7053,1.7077,1.7113,1.7159,1.7196,1.7242,1.7281,1.7335,1.7377,1.7389,1.7406,1.7398,1.7396,1.7402,1.7441,1.7436,1.7384,1.7384,1.7384,1.7384,1.7384,1.7384,1.676,1.6795,1.6833,1.6888,1.693,1.6972,1.6998,1.7035,1.7073,1.7124,1.7159,1.7196,1.7244,1.7291,1.7327,1.7342,1.7353,1.734,1.7358,1.7393,1.7399,1.7406,1.7401,1.7342,1.7342,1.7317,1.7317,1.7316]},{"header":{"parameterUnit":"m.s-1","parameterCategory":1,"la1":30.2991,"la2":30.254,"lo1":-89.0895,"lo2":-89.0444,"dy":0.0017,"dx":0.0017,"nx":28,"ny":28,"refTime":"2025-07-05T09:00:00:Z","depth":0,"parameterNumber":3,"parameterNumberName":"V-component_of_WINDS"},"data":[0,0,0,0,0,0,0,0,0,0,0,0,0,0,0,0,0,0,0,0,0,0,0,0,0,0,0,0,0,0,0,0,0,0,0,0,0,0,0,0,0,0,0,0,0,0,0,0,0,0,0,0,0,0,0,0,0,0,-0.0906,-0.0906,0,-0.0971,-0.0972,-0.0973,-0.0908,-0.0905,-0.0903,-0.09,-0.0972,-0.0976,-0.0981,0,0,0,0,0,0,0,0,0,0,0,0,0,-0.0725,-0.0729,-0.0906,-0.0906,-0.0907,-0.0971,-0.0972,-0.0973,-0.0908,-0.0905,-0.0902,-0.0899,-0.0971,-0.0976,-0.0981,0,0,0,0,0,0,0,0,0,0,0,0,0,-0.0798,-0.073,-0.0905,-0.0882,-0.0881,-0.0971,-0.0972,-0.0973,-0.0909,-0.0905,-0.0901,-0.0898,-0.0969,-0.0975,-0.0982,-0.1099,0,0,-0.1001,-0.1004,0,0,0,0,0,0,0,0,-0.0794,-0.0805,-0.0885,-0.0884,-0.0883,-0.0927,-0.0934,-0.1015,-0.091,-0.0899,-0.09,-0.0896,-0.0961,-0.0967,-0.0988,-0.1102,-0.1105,-0.1002,-0.1006,-0.1009,-0.101,0,0,0,0,0,0,0,-0.0789,-0.0802,-0.0932,-0.0886,-0.0885,-0.0869,-0.0875,-0.0949,-0.0951,-0.0899,-0.0895,-0.0903,-0.0959,-0.0982,-0.099,-0.1106,-0.1002,-0.1008,-0.1012,-0.1014,-0.1314,-0.1318,0,0,0,0,0,0,-0.0786,-0.0798,-0.0929,-0.0934,-0.0828,-0.0875,-0.0882,-0.0917,-0.0949,-0.0951,-0.0906,-0.09,-0.0973,-0.0982,-0.0992,-0.1128,-0.1009,-0.1015,-0.1018,-0.131,-0.1315,-0.1319,0,0,0,0,0,0,-0.0783,-0.0799,-0.0927,-0.0865,-0.088,-0.0883,-0.0922,-0.092,-0.0943,-0.0955,-0.0955,-0.093,-0.097,-0.0983,-0.1071,-0.113,-0.1018,-0.1023,-0.1305,-0.1311,-0.1317,-0.1404,0,0,0,0,0,0,-0.0778,-0.0798,-0.0843,-0.0866,-0.0883,-0.1005,-0.0926,-0.0924,-0.0954,-0.0946,-0.0977,-0.0978,-0.0968,-0.1062,-0.1078,-0.1137,-0.1029,-0.13,-0.1308,-0.1315,-0.1396,-0.1413,-0.1427,0,0,0,0,0,-0.0772,-0.0867,-0.0845,-0.0862,-0.0939,-0.1009,-0.1019,-0.1004,-0.0959,-0.1004,-0.101,-0.0977,-0.112,-0.1071,-0.1089,-0.1151,-0.1296,-0.1306,-0.1315,-0.1389,-0.1409,-0.1426,0,0,0,0,0,0,-0.0854,-0.087,-0.0846,-0.0952,-0.0979,-0.0998,-0.1055,-0.1027,-0.1069,-0.1061,-0.1042,-0.1049,-0.1142,-0.1155,-0.11,-0.1263,-0.1201,-0.1214,-0.1252,-0.1271,-0.1286,-0.1282,-0.1034,0,0,0,0,0,-0.0884,-0.0938,-0.0949,-0.1041,-0.1056,-0.1052,-0.1083,-0.1068,-0.1097,-0.1109,-0.1122,-0.1152,-0.1202,-0.1237,-0.1286,-0.1397,-0.1401,-0.1447,-0.1463,-0.1475,-0.1487,-0.1544,-0.1564,-0.135,-0.1349,-0.1349,0,0,-0.0948,-0.0962,-0.0999,-0.1058,-0.1078,-0.1134,-0.1063,-0.1127,-0.1169,-0.1119,-0.1202,-0.1212,-0.1244,-0.1343,-0.1388,-0.1357,-0.1547,-0.1487,-0.1497,-0.1502,-0.1555,-0.1575,-0.1594,-0.1356,-0.1355,-0.1354,0,0,-0.1092,-0.1109,-0.1186,-0.1205,-0.1234,-0.123,-0.1249,-0.127,-0.1274,-0.1357,-0.1319,-0.1368,-0.1458,-0.1481,-0.1504,-0.165,-0.1621,-0.1666,-0.1747,-0.1802,-0.1819,-0.1834,-0.1884,-0.1903,-0.1678,-0.1678,-0.1678,0,-0.1168,-0.1251,-0.1229,-0.1294,-0.1321,-0.1273,-0.135,-0.1371,-0.1415,-0.1434,-0.1398,-0.1506,-0.1524,-0.1627,-0.1661,-0.1682,-0.1702,-0.1664,-0.1818,-0.1833,-0.1846,-0.1894,-0.1914,-0.1683,-0.1683,-0.1682,-0.1682,0,-0.1342,-0.1399,-0.1458,-0.1498,-0.153,-0.1601,-0.159,-0.1625,-0.1606,-0.1606,-0.1688,-0.1707,-0.1757,-0.1779,-0.1764,-0.1878,-0.1858,-0.182,-0.1758,-0.1872,-0.1917,-0.1935,-0.1691,-0.1689,-0.1687,-0.1686,0,0,-0.1546,-0.1567,-0.1589,-0.1605,-0.163,-0.1675,-0.1742,-0.1787,-0.1817,-0.1847,-0.1903,-0.1976,-0.1939,-0.1966,-0.1951,-0.2,-0.2111,-0.1955,-0.1956,-0.1983,-0.2237,-0.2265,-0.2287,-0.209,-0.2094,-0.2097,-0.2234,0,-0.169,-0.1805,-0.1784,-0.1896,-0.1948,-0.19,-0.1958,-0.198,-0.198,-0.2024,-0.2024,-0.2076,-0.2024,-0.2039,-0.2085,-0.2088,-0.2162,-0.2078,-0.2142,-0.2145,-0.2137,-0.2311,-0.2343,-0.2471,-0.2251,-0.2254,-0.2256,0,-0.1875,-0.1908,-0.2024,-0.2036,-0.2057,-0.211,-0.2147,-0.219,-0.2212,-0.2208,-0.2234,-0.2209,-0.2275,-0.2208,-0.2298,-0.2241,-0.2265,-0.227,-0.2275,-0.2282,-0.2209,-0.2322,-0.2512,-0.2532,-0.2284,-0.2282,-0.228,0,-0.201,-0.2084,-0.2162,-0.2177,-0.2194,-0.2231,-0.224,-0.2258,-0.2285,-0.2317,-0.2334,-0.2375,-0.2398,-0.243,-0.2415,-0.2369,-0.2507,-0.244,-0.2506,-0.2506,-0.2539,-0.2537,-0.2736,-0.2554,-0.2553,-0.2553,-0.2553,0,-0.2174,-0.2247,-0.2222,-0.227,-0.2349,-0.2323,-0.2402,-0.2406,-0.2421,-0.2468,-0.243,-0.2476,-0.2454,-0.2498,-0.2487,-0.2561,-0.2572,-0.2571,-0.2567,-0.2575,-0.2575,-0.2592,-0.2583,-0.2558,-0.2557,-0.2556,-0.2555,0,-0.2341,-0.2327,-0.2408,-0.2415,-0.2418,-0.2476,-0.2482,-0.2527,-0.2521,-0.2581,-0.2594,-0.2586,-0.2635,-0.2622,-0.2677,-0.2669,-0.2763,-0.2748,-0.2755,-0.2751,-0.2817,-0.2811,-0.3034,-0.3061,-0.2861,-0.2863,-0.2865,0,-0.2447,-0.2501,-0.2512,-0.2539,-0.255,-0.2596,-0.2621,-0.2597,-0.2625,-0.2651,-0.2692,-0.2736,-0.2771,-0.2851,-0.285,-0.289,-0.2876,-0.2951,-0.2883,-0.2887,-0.2877,-0.2874,-0.2878,-0.2966,-0.2968,-0.297,-0.2972,0,-0.2636,-0.2625,-0.2663,-0.2697,-0.2727,-0.2754,-0.2777,-0.2802,-0.2778,-0.2812,-0.2859,-0.2886,-0.2938,-0.2982,-0.3018,-0.3027,-0.2996,-0.2992,-0.301,-0.3019,-0.302,-0.3019,-0.2793,-0.2989,-0.2987,-0.2986,-0.2985,-0.2984,-0.2776,-0.282,-0.2833,-0.2875,-0.2888,-0.2909,-0.2949,-0.2946,-0.2985,-0.3024,-0.3007,-0.3061,-0.3077,-0.3121,-0.3135,-0.3176,-0.3148,-0.3174,-0.318,-0.3187,-0.3194,-0.3012,-0.3183,-0.3183,-0.3182,-0.3182,-0.3181,0,-0.2962,-0.2967,-0.3005,-0.3036,-0.3068,-0.3031,-0.3053,-0.3083,-0.313,-0.3147,-0.318,-0.3233,-0.3274,-0.3274,-0.3313,-0.3346,-0.3332,-0.3357,-0.3355,-0.3357,-0.3218,-0.3199,-0.3367,-0.3367,-0.3367,-0.3367,-0.3367,-0.3367,-0.3063,-0.3135,-0.3125,-0.3201,-0.3205,-0.3256,-0.3271,-0.329,-0.3302,-0.3362,-0.3395,-0.3393,-0.3403,-0.344,-0.3476,-0.3475,-0.3491,-0.3521,-0.3515,-0.3386,-0.3367,-0.335,-0.3332,-0.3525,-0.3525,-0.365,-0.3651,-0.3652]}]]